IW2LSY-3 Weather Reports


time (UTC)temp
F
wind
direction
speed
knots
gust
knots
rain 1hr
in
rain 24hr
in
rain mn
in
humidity
%
barometer
mb
20260503071955 68 0 0.0 0.0 0.00 0.00 0.00 59
20260503070954 68 0 0.0 0.0 0.00 0.00 0.00 59
20260503054954 59 0 0.0 0.0 0.00 0.00 0.00 82
20260503053955 58 0 0.0 0.0 0.00 0.00 0.00 88
20260503052955 57 0 0.0 0.0 0.00 0.00 0.00 91
20260503051955 56 0 0.0 0.0 0.00 0.00 0.00 93
20260503050955 54 0 0.0 0.0 0.00 0.00 0.00 96
20260503045954 52 0 0.0 0.0 0.00 0.00 0.00 99
20260503044955 51 0 0.0 0.0 0.00 0.00 0.00 99
20260503043955 50 0 0.0 0.0 0.00 0.00 0.00 99
20260503042955 50 0 0.0 0.0 0.00 0.00 0.00 99
20260503041954 50 0 0.0 0.0 0.00 0.00 0.00 99
20260503040955 49 0 0.0 0.0 0.00 0.00 0.00 99
20260503035955 49 0 0.0 0.0 0.00 0.00 0.00 99
20260503034955 49 0 0.0 0.0 0.00 0.00 0.00 99
20260503033955 50 0 0.0 0.0 0.00 0.00 0.00 99
20260503032954 50 0 0.0 0.0 0.00 0.00 0.00 99
20260503031955 50 0 0.0 0.0 0.00 0.00 0.00 99
20260503030955 50 0 0.0 0.0 0.00 0.00 0.00 99
20260503025955 50 0 0.0 0.0 0.00 0.00 0.00 99
20260503024955 50 0 0.0 0.0 0.00 0.00 0.00 99
20260503023954 50 0 0.0 0.0 0.00 0.00 0.00 99
20260503022955 50 0 0.0 0.0 0.00 0.00 0.00 99
20260503021955 50 0 0.0 0.0 0.00 0.00 0.00 99
20260503020955 50 0 0.0 0.0 0.00 0.00 0.00 99
20260503015955 51 0 0.0 0.0 0.00 0.00 0.00 99
20260503014955 51 0 0.0 0.0 0.00 0.00 0.00 99
20260503013955 51 0 0.0 0.0 0.00 0.00 0.00 99
20260503012955 51 0 0.0 0.0 0.00 0.00 0.00 99
20260503011955 52 0 0.0 0.0 0.00 0.00 0.00 99
20260503010955 52 0 0.0 0.0 0.00 0.00 0.00 99
20260503005955 52 0 0.0 0.0 0.00 0.00 0.00 99
20260503004955 52 0 0.0 0.0 0.00 0.00 0.00 99
20260503003955 53 0 0.0 0.0 0.00 0.00 0.00 99
20260503002955 53 0 0.0 0.0 0.00 0.00 0.00 99
20260503001955 53 0 0.0 0.0 0.00 0.00 0.00 99
20260503000954 53 0 0.0 0.0 0.00 0.00 0.00 99
20260502235955 53 0 0.0 0.0 0.00 0.00 0.00 99
20260502234954 53 0 0.0 0.0 0.00 0.00 0.00 99
20260502233955 53 0 0.0 0.0 0.00 0.00 0.00 99
20260502232955 54 0 0.0 0.0 0.00 0.00 0.00 99
20260502231955 54 0 0.0 0.0 0.00 0.00 0.00 99
20260502230955 54 0 0.0 0.0 0.00 0.00 0.00 99
20260502225954 55 0 0.0 0.0 0.00 0.00 0.00 97
20260502224955 55 0 0.0 0.0 0.00 0.00 0.00 96
20260502223955 55 0 0.0 0.0 0.00 0.00 0.00 94
20260502222955 55 0 0.0 0.0 0.00 0.00 0.00 93
20260502221954 56 0 0.0 0.0 0.00 0.00 0.00 93
20260502220955 56 0 0.0 0.0 0.00 0.00 0.00 92
20260502215954 57 0 0.0 0.0 0.00 0.00 0.00 91
20260502102955 70 0 0.0 0.0 0.00 0.00 0.00 43
20260502101955 70 0 0.0 0.0 0.00 0.00 0.00 46
20260502100955 69 0 0.0 0.0 0.00 0.00 0.00 46
20260502090955 66 0 0.0 0.0 0.00 0.00 0.00 55